Terug naar catalogus

RADUGA 20

ActiefMilitairGEO
NORAD 17611·PAYLOAD·🇷🇺 Russia

Gelanceerd Mar 19, 1987 vanaf Baikonur Cosmodrome

Loading…

TLE

VersSource: Space-Track

Epoch: Sep 14, 2026, 09:52 UTC

1 17611U 87028A   26257.41180010 -.00000085  00000-0  00000-0 0  9992
2 17611  13.1806 327.7750 0026709 178.3145 244.2039  0.95960554139179

Volg RADUGA 20 in realtime met AllMySat

Download on the App Store